Worcester, MA

11:44 AM EDT on May 26, 2017 (GMT -0400)
Worcester Regional

Weather History for KORH - February, 2012

Change the Weather History Date:

Tuesday, February 14, 2012

  Actual Average Record
Temperature  
Mean Temperature 34 °F 27 °F  
Max Temperature 40 °F 34 °F 56 °F (1908)
Min Temperature 27 °F 19 °F -16 °F (2016)
Degree Days  
Heating Degree Days 31 38  
Month to date heating degree days 474 550  
Since 1 July heating degree days 3478 4323  
Cooling Degree Days 0 0  
Month to date cooling degree days 0 0  
Year to date cooling degree days 0 0  
Moisture  
Dew Point 11 °F    
Average Humidity 41    
Maximum Humidity 57    
Minimum Humidity 25    
Precipitation  
Precipitation 0.00 in 0.11 in 1.90 in (1892)
Month to date precipitation 0.02 1.58  
Year to date precipitation 3.05 5.07  
Snow  
Snow 0.00 in 0.60 in 19.50 in (1962)
Month to date snowfall 0.5 8.0  
Since 1 July snowfall 30.4 42.3  
Snow Depth 0.00 in    
Sea Level Pressure  
Sea Level Pressure 30.05 in    
Wind  
Wind Speed 8 mph (SW)    
Max Wind Speed 17 mph    
Max Gust Speed 22 mph    
Visibility 10 miles    
Events      
T = Trace of Precipitation, MM = Missing Value Source: NWS Daily Summary

Daily Weather History Graph

Daily Weather History Graph

Search for Another Location

Airport or City:

Trip Planner

Search our weather history database for the weather conditions in past years. The results will help you decide how hot, cold, wet, or windy it might be!

Date:

Astronomy

Feb. 14, 2012 Rise Set
Actual Time 6:45 AM EST 5:18 PM EST
Civil Twilight 6:17 AM EST 5:46 PM EST
Nautical Twilight 5:44 AM EST 6:19 PM EST
Astronomical Twilight 5:11 AM EST 6:52 PM EST
Moon 12:30 AM EST (2/14) 10:18 AM EST (2/14)
Length of Visible Light 11h 29m
Length of Day
10h 32m
Waning Gibbous, 50% of the Moon is Illuminated
Feb 14
Waning Gibbous
Feb 14
Last Quarter
Feb 21
New
Feb 29
First Quarter
Mar 8
Full

Hourly Weather History & Observations

Time (EST) Temp. Windchill Dew Point Humidity Pressure Visibility Wind Dir Wind Speed Gust Speed Precip Events Conditions
12:54 AM 28.0 °F 18.6 °F 12.9 °F 53% 29.98 in 10.0 mi WSW 10.4 mph - N/A   Clear
1:54 AM 27.0 °F 18.0 °F 14.0 °F 58% 29.99 in 10.0 mi West 9.2 mph - N/A   Clear
2:54 AM 28.9 °F 18.2 °F 14.0 °F 54% 29.99 in 10.0 mi West 13.8 mph - N/A   Clear
3:54 AM 28.9 °F 18.6 °F 12.9 °F 51% 30.00 in 10.0 mi West 12.7 mph - N/A   Clear
4:54 AM 28.9 °F 19.8 °F 12.9 °F 51% 30.02 in 10.0 mi West 10.4 mph - N/A   Clear
5:54 AM 28.9 °F 21.1 °F 10.9 °F 47% 30.04 in 10.0 mi West 8.1 mph - N/A   Scattered Clouds
6:54 AM 30.2 °F 21.3 °F 10.4 °F 44% 30.01 in 10.0 mi West 10.4 mph - N/A   Overcast
7:54 AM 30.9 °F 24.3 °F 9.0 °F 40% 30.08 in 10.0 mi West 6.9 mph - N/A   Overcast
8:54 AM 32.0 °F 25.6 °F 9.0 °F 38% 30.09 in 10.0 mi West 6.9 mph - N/A   Overcast
9:54 AM 33.1 °F 26.1 °F 9.0 °F 37% 30.09 in 10.0 mi West 8.1 mph - N/A   Overcast
10:54 AM 37.0 °F 31.6 °F 9.0 °F 31% 30.09 in 10.0 mi NW 6.9 mph - N/A   Overcast
11:54 AM 37.9 °F 32.7 °F 7.0 °F 28% 30.08 in 10.0 mi WSW 6.9 mph - N/A   Overcast
12:54 PM 39.0 °F 31.8 °F 8.1 °F 28% 30.06 in 10.0 mi South 11.5 mph - N/A   Overcast
1:54 PM 39.0 °F 34.0 °F 7.0 °F 27% 30.04 in 10.0 mi SSW 6.9 mph - N/A   Overcast
2:54 PM 39.0 °F 34.8 °F 7.0 °F 27% 30.04 in 10.0 mi South 5.8 mph - N/A   Overcast
3:54 PM 37.9 °F 32.7 °F 10.0 °F 32% 30.04 in 10.0 mi South 6.9 mph - N/A   Mostly Cloudy
4:54 PM 37.0 °F 32.4 °F 9.0 °F 31% 30.04 in 10.0 mi SSW 5.8 mph - N/A   Clear
5:54 PM 35.1 °F 29.3 °F 9.0 °F 34% 30.06 in 10.0 mi SSW 6.9 mph - N/A   Clear
6:54 PM 34.0 °F 29.8 °F 8.1 °F 34% 30.08 in 10.0 mi SW 4.6 mph - N/A   Clear
7:54 PM 33.1 °F 30.0 °F 10.0 °F 38% 30.08 in 10.0 mi SSW 3.5 mph - N/A   Overcast
8:54 PM 34.0 °F 28.8 °F 12.9 °F 42% 30.09 in 10.0 mi SSW 5.8 mph - N/A   Overcast
9:54 PM 33.1 °F 28.7 °F 12.9 °F 43% 30.09 in 10.0 mi SW 4.6 mph - N/A   Overcast
10:54 PM 34.0 °F 29.8 °F 17.1 °F 50% 30.09 in 10.0 mi SSW 4.6 mph - N/A   Overcast
11:54 PM 34.0 °F 28.8 °F 19.0 °F 54% 30.09 in 10.0 mi SW 5.8 mph - N/A   Overcast